This is the latest recevied weather packets stored in our database for station/object WA4TPR. If no packets are shown the sender has not sent any weather packets the latest 10 day(s).
| Time | Temp. | Humidity | Pressure | Rain* | Wind** | Luminosity | Snow |
|---|---|---|---|---|---|---|---|
| 1777898251 | 22.22° C | 85% | 1019.8 hPa | 0 mm | - | 113 W/m² | - |
| 1777897948 | 22.22° C | 85% | 1019.8 hPa | 0 mm | - | 112 W/m² | - |
| 1777897644 | 22.22° C | 84% | 1019.9 hPa | 0 mm | - | 199 W/m² | - |
| 1777897340 | 21.67° C | 86% | 1019.6 hPa | 0 mm | - | 137 W/m² | - |
| 1777897036 | 21.67° C | 86% | 1019.7 hPa | 0 mm | - | 120 W/m² | - |
| 1777896734 | 21.67° C | 87% | 1019.7 hPa | 0 mm | - | 108 W/m² | - |
| 1777896431 | 21.67° C | 87% | 1019.6 hPa | 0 mm | - | 91 W/m² | - |
| 1777896128 | 21.67° C | 88% | 1019.6 hPa | 0 mm | - | 84 W/m² | - |
| 1777895826 | 21.11° C | 88% | 1019.5 hPa | 0 mm | - | 69 W/m² | - |
| 1777895523 | 21.11° C | 89% | 1019.5 hPa | 0 mm | - | 65 W/m² | - |
| 1777895221 | 21.11° C | 89% | 1019.4 hPa | 0 mm | - | 52 W/m² | - |
| 1777894918 | 20.56° C | 90% | 1019.5 hPa | 0 mm | - | 49 W/m² | - |
| 1777894615 | 20.56° C | 90% | 1019.3 hPa | 0 mm | - | 49 W/m² | - |
| 1777894312 | 20.56° C | 90% | 1019.2 hPa | 0 mm | - | 46 W/m² | - |
| 1777894009 | 20.56° C | 90% | 1019.4 hPa | 0 mm | - | 38 W/m² | - |
| 1777893705 | 20.56° C | 90% | 1019.2 hPa | 0 mm | - | 28 W/m² | - |
| 1777893402 | 20.56° C | 90% | 1019.1 hPa | 0 mm | - | 24 W/m² | - |
| 1777893098 | 20.56° C | 89% | 1019.2 hPa | 0 mm | - | 18 W/m² | - |
| 1777892795 | 21.11° C | 89% | 1019.3 hPa | 0 mm | - | 13 W/m² | - |
| 1777892491 | 21.11° C | 89% | 1019 hPa | 0 mm | - | 9 W/m² | - |
| 1777892187 | 21.11° C | 89% | 1019 hPa | 0 mm | - | 7 W/m² | - |
| 1777891884 | 21.11° C | 89% | 1018.8 hPa | 0 mm | - | 5 W/m² | - |
| 1777891581 | 20.56° C | 89% | 1018.9 hPa | 0 mm | - | 3 W/m² | - |
| 1777891278 | 20.56° C | 89% | 1018.7 hPa | 0 mm | - | 1 W/m² | - |
| 1777890972 | 20.56° C | 90% | 1018.5 hPa | 0 mm | - | 0 W/m² | - |
* Rain latest hour (hover to see other rain measurements)
** Current wind speed in m/s (hover to see current wind gust speed)